Weather History for KLNR - March, 2013

Change the Weather History Date:

Saturday, March 23, 2013

  Actual Average Record
Temperature  
Mean Temperature 29 °F -  
Max Temperature 39 °F 46 °F 66 °F (2012)
Min Temperature 19 °F 27 °F 14 °F (2014)
Degree Days  
Heating Degree Days 36    
Moisture  
Dew Point 20 °F    
Average Humidity 68    
Maximum Humidity 89    
Minimum Humidity 45    
Precipitation  
Precipitation 0.00 in - - ()
Sea Level Pressure  
Sea Level Pressure 30.10 in    
Wind  
Wind Speed 2 mph (ESE)    
Max Wind Speed 12 mph    
Max Gust Speed -    
Visibility 10 miles    
Events      
Averages and records for this station are not official NWS values.
T = Trace of Precipitation, MM = Missing Value Source: NWS Daily Summary

Daily Weather History Graph

Daily Weather History Graph

Search for Another Location

Airport or City:

Trip Planner

Search our weather history database for the weather conditions in past years. The results will help you decide how hot, cold, wet, or windy it might be!

Date:

Astronomy

Mar. 23, 2013 Rise Set
Actual Time 6:58 AM CDT 7:16 PM CDT
Civil Twilight 6:29 AM CDT 7:45 PM CDT
Nautical Twilight 5:56 AM CDT 8:18 PM CDT
Astronomical Twilight 5:21 AM CDT 8:53 PM CDT
Moon 3:38 PM CDT (3/23) 4:40 AM CDT (3/23)
Length of Visible Light 13h 15m
Length of Day
12h 18m
Waxing Gibbous, 85% of the Moon is Illuminated
Mar 23
Waxing Gibbous
Mar 27
Full
Apr 2
Last Quarter
Apr 10
New
Apr 18
First Quarter

Hourly Weather History & Observations

Time (CDT) Temp. Windchill Dew Point Humidity Pressure Visibility Wind Dir Wind Speed Gust Speed Precip Events Conditions
12:56 AM 26.1 °F - 21.9 °F 84% 30.09 in 10.0 mi Calm Calm - N/A   Clear
1:56 AM 24.1 °F - 21.0 °F 88% 30.09 in 10.0 mi Calm Calm - N/A   Clear
2:56 AM 24.1 °F - 19.0 °F 81% 30.09 in 10.0 mi Calm Calm - N/A   Clear
3:56 AM 23.0 °F - 19.9 °F 88% 30.07 in 9.0 mi Calm Calm - N/A   Clear
4:56 AM 21.0 °F - 17.1 °F 85% 30.08 in 9.0 mi Calm Calm - N/A   Clear
5:56 AM 21.0 °F - 18.0 °F 88% 30.10 in 9.0 mi Calm Calm - N/A   Clear
6:56 AM 19.9 °F 13.4 °F 17.1 °F 89% 30.13 in 9.0 mi WSW 4.6 mph - N/A   Clear
7:56 AM 21.0 °F - 18.0 °F 88% 30.14 in 7.0 mi Calm Calm - N/A   Clear
8:56 AM 23.0 °F - 18.0 °F 81% 30.14 in 10.0 mi Calm Calm - N/A   Clear
9:56 AM 27.0 °F 23.0 °F 18.0 °F 69% 30.15 in 10.0 mi WSW 3.5 mph - N/A   Clear
10:56 AM 33.1 °F - 21.0 °F 61% 30.13 in 10.0 mi Calm Calm - N/A   Clear
11:56 AM 35.1 °F 29.3 °F 19.0 °F 52% 30.13 in 10.0 mi ESE 6.9 mph - N/A   Clear
12:56 PM 36.0 °F 33.3 °F 19.0 °F 50% 30.13 in 10.0 mi ESE 3.5 mph - N/A   Clear
1:56 PM 37.0 °F 33.3 °F 19.9 °F 50% 30.12 in 10.0 mi SSE 4.6 mph - N/A   Clear
2:56 PM 37.9 °F 34.4 °F 19.9 °F 48% 30.10 in 10.0 mi ESE 4.6 mph - N/A   Partly Cloudy
3:56 PM 37.9 °F 34.4 °F 19.0 °F 47% 30.08 in 10.0 mi SE 4.6 mph - N/A   Clear
4:56 PM 39.9 °F 35.1 °F 19.9 °F 45% 30.06 in 10.0 mi NNE 6.9 mph - N/A   Clear
5:56 PM 36.0 °F 28.0 °F 21.9 °F 57% 30.06 in 10.0 mi ESE 11.5 mph - N/A   Clear
6:56 PM 34.0 °F 26.0 °F 23.0 °F 64% 30.07 in 10.0 mi ESE 10.4 mph - N/A   Clear
7:56 PM 33.1 °F 27.7 °F 23.0 °F 66% 30.07 in 10.0 mi East 5.8 mph - N/A   Clear
8:56 PM 33.1 °F 27.7 °F 19.9 °F 59% 30.09 in 10.0 mi ENE 5.8 mph - N/A   Clear
9:56 PM 32.0 °F 25.6 °F 21.0 °F 64% 30.09 in 10.0 mi East 6.9 mph - N/A   Clear
10:56 PM 32.0 °F 26.4 °F 21.0 °F 64% 30.09 in 10.0 mi East 5.8 mph - N/A   Clear
11:56 PM 32.0 °F 24.2 °F 21.0 °F 64% 30.08 in 10.0 mi ENE 9.2 mph - N/A   Clear